Location: Newark
(58.8333°N, 23.5833°E)
Time: 10:09:32
(UTC+00:00)

A-11 Canister half - Pass Details

Date: 18 November 2019
Orbit: 1515 x 1685 km, 47.2° (Epoch: 12 December)

Event Time Altitude Azimuth Distance (km) Brightness Sun altitude
Rises 16:26:39 0° 212° (SSW) 4,896 12.2 -18.4°
Reaches altitude 10° 16:30:19 10° 202° (SSW) 3,926 11.5 -18.9°
Maximum altitude 16:38:27 29° 148° (SSE) 2,735 10.0 -19.9°
Enters shadow 16:42:13 23° 116° (ESE) 3,039 10.0 -20.4°
Drops below altitude 10° 16:46:36 10° 94° (E) 3,946 - -21.0°
Sets 16:50:17 0° 84° (E) 4,926 - -21.5°
